Regional Weather Roundup
Issued by NWS

Home | Current Version | Previous Version | Graphics & Text | Print | Product List | Glossary Off
Versions: 1 2 3 4 5 6 7 8 9 10 11 12 13 14 15 16 17 18 19 20 21 22 23 24 25 26 27 28 29 30 31 32 33 34 35 36 37 38 39 40 41 42 43 44 45 46 47 48 49 50

043
ASUS43 KLSX 161907
RWRMO

WEATHER SUMMARY FOR MISSOURI
NATIONAL WEATHER SERVICE SPRINGFIELD MO
200 PM CDT MON OCT 16 2017

NOTE: "FAIR" INDICATES FEW OR NO CLOUDS BELOW 12,000 FEET WITH NO
       SIGNIFICANT WEATHER AND/OR OBSTRUCTIONS TO VISIBILITY.
       CURRENT SKY AND/OR WEATHER CONDITIONS ARE NOT AVAILABLE FOR
       CHILLICOTHE AND FARMINGTON.

MOZ001>031-035>038-043-044-053-054-162000-
...NORTHERN AND WESTERN MISSOURI...

CITY           SKY/WX    TMP DP  RH WIND       PRES   REMARKS
KANSAS CTY INT SUNNY     67  40  37 SW13      30.32F
KANSAS C DTWN  SUNNY     68  40  35 S6        30.32F
LEE`S SUMMIT   SUNNY     67  39  35 SW10      30.34F
ST JOSEPH      SUNNY     71  38  29 SW9       30.30F
CHILLICOTHE      N/A     69  35  28 NW7       30.32F
KIRKSVILLE     SUNNY     65  39  38 SW8       30.33F

$$
MOZ066>068-077>081-088>096-101>105-162000-
...SOUTHWEST MISSOURI...

CITY           SKY/WX    TMP DP  RH WIND       PRES   REMARKS
SPRINGFIELD    SUNNY     66  34  30 CALM      30.37F
JOPLIN         SUNNY     64  38  38 CALM      30.38F
BRANSON        SUNNY     64  34  32 NE5       30.39F

$$
MOZ032>034-039>042-045>050-055>058-069>072-162000-
...CENTRAL MISSOURI...

CITY           SKY/WX    TMP DP  RH WIND       PRES   REMARKS
COLUMBIA       SUNNY     66  37  34 W8        30.35F
JEFFERSON CITY SUNNY     66  35  31 VRB6      30.34F
ROLLA          SUNNY     64  35  34 CALM      30.36F
SEDALIA        SUNNY     67  41  38 W8        30.35F
WHITEMAN AFB   SUNNY     66  39  37 W6        30.30F
OSAGE BEACH    SUNNY     64  36  35 CALM      30.37F

$$
MOZ051-052-059>065-162000-
...EAST CENTRAL MISSOURI...

CITY           SKY/WX    TMP DP  RH WIND       PRES   REMARKS
ST LOUIS INTL  SUNNY     65  37  35 VRB3      30.35F
SPIRIT OF STL  SUNNY     65  38  36 SW7       30.34F
ST CHARLES     SUNNY     65  36  34 VRB6      30.34F

$$
MOZ072>076-082>087-097>100-106>115-162000-
...SOUTH CENTRAL AND SOUTHEAST MISSOURI...

CITY           SKY/WX    TMP DP  RH WIND       PRES   REMARKS
CAPE GIRARDEAU SUNNY     64  38  38 NE8       30.35F
FARMINGTON     SUNNY     62  36  37 NW10      30.36F
POPLAR BLUFF   SUNNY     66  36  32 E7        30.34F
WEST PLAINS    SUNNY     66  32  28 E8        30.37F

$$



USA.gov is the U.S. government's official web portal to all federal, state and local government web resources and services.